Find Starlink 4776

NORAD ID: 53837 Int'l Des: 2022-114 Owner: SPXS Country: US Constellation: starlink operational
LEOCIRCULAR

当前视图

正在加载3D地球...

About Starlink 4776

Starlink 4776 (NORAD 53837) is a starlink constellation satellite (v1.5) launched Sep 19, 2022 by SPXS of US. It operates in LEO, CIRCULAR orbit with a mass of 305.00 kg.

关于 Starlink 4776

正在加载描述...

即将过境

Passes for default location (London). Set your location on the main map for personalized predictions.

高度历史

Loading altitude history...

两行轨道根数

1 53837U 22114V 26171.34950066 .00000169 00000-0 28733-4 0 9999
2 53837 53.1595 202.8569 0001135 89.1584 270.9538 15.08835349208339
Epoch: Jun 20, 2026 • Age: 41 hours

当前状态

高度 554.6 km
速度 7.58 km/s
星下点 -42.55°S, 130.44°E
发射日期 Sep 19, 2022
运行时间 3.7 years
类型 internet

技术详情

分类 Payload
质量 305.00 kg
干质量 290.00 kg
总质量 305.00 kg
长度 0.20 m
直径 2.80 m
跨度 9.00 m
形状 Box + pan
制造商 SPXS
平台类型 Starlink
阶段状态 In Orbit
所有者/国家 SPXS/US

Most Searched